Tracking 19288 objects as of 20-Nov-2018
HD Live streaming from Space Station
objects crossing your sky now

COSMOS 680

Track COSMOS 680 now!
10-day predictions
COSMOS 680 is classified as:


NORAD ID: 7438
Int'l Code: 1974-072D
Perigee: 1,472.9 km
Apogee: 1,498.8 km
Inclination: 74.0 °
Period: 115.5 minutes
Semi major axis: 7856 km
RCS: 0.7018 m2 (medium)
Launch date: September 19, 1974
Source: Commonwealth of Independent States (former USSR) (CIS)
Launch site: PLESETSK MISSILE AND SPACE COMPLEX (PKMTR)
aabbcc
Your satellite tracking list
Your tracking list is empty




NASA's NSSDC Master Catalog

Two Line Element Set (TLE):
1  7438U 74072D   18323.91516912 +.00000005 +00000-0 +14571-3 0  9999
2  7438 074.0333 180.0049 0016488 283.3185 182.9562 12.46602739009959
Source of the keplerian elements: AFSPC